Topeka, KS

11:43 AM CDT on May 27, 2017 (GMT -0500)
Billard Municipal

Weather History for KTOP - January, 2014

Change the Weather History Date:

Wednesday, January 15, 2014

  Actual Average Record
Temperature  
Mean Temperature 29 °F 30 °F  
Max Temperature 41 °F 40 °F 65 °F (2006)
Min Temperature 16 °F 19 °F -20 °F (1888)
Degree Days  
Heating Degree Days 36 35  
Month to date heating degree days 581 532  
Since 1 July heating degree days 2685 2549  
Cooling Degree Days 0 0  
Month to date cooling degree days 0 0  
Year to date cooling degree days 0 0  
Moisture  
Dew Point 15 °F    
Average Humidity 56    
Maximum Humidity 73    
Minimum Humidity 38    
Precipitation  
Precipitation T in 0.03 in 0.70 in (1949)
Month to date precipitation 0.34 0.36  
Year to date precipitation 0.34 0.36  
Snow  
Snow 0.00 in 0.10 in 2.90 in (1898)
Month to date snowfall 3.8 2.3  
Year to date snowfall 3.8 2.3  
Since 1 July snowfall 8.1 8.8  
Snow Depth 0.00 in    
Sea Level Pressure  
Sea Level Pressure 30.13 in    
Wind  
Wind Speed 5 mph (SW)    
Max Wind Speed 13 mph    
Max Gust Speed 16 mph    
Visibility 10 miles    
Events      
T = Trace of Precipitation, MM = Missing Value Source: NWS Daily Summary

Daily Weather History Graph

Daily Weather History Graph

Search for Another Location

Airport or City:

Trip Planner

Search our weather history database for the weather conditions in past years. The results will help you decide how hot, cold, wet, or windy it might be!

Date:

Astronomy

Jan. 15, 2014 Rise Set
Actual Time 7:39 AM CST 5:24 PM CST
Civil Twilight 7:10 AM CST 5:53 PM CST
Nautical Twilight 6:37 AM CST 6:26 PM CST
Astronomical Twilight 6:05 AM CST 6:58 PM CST
Moon 5:22 PM CST (1/15) 6:57 AM CST (1/15)
Length of Visible Light 10h 42m
Length of Day
9h 44m
Full, 100% of the Moon is Illuminated
Jan 15
Full
Jan 15
Full
Jan 23
Last Quarter
Jan 30
New
Feb 6
First Quarter

Hourly Weather History & Observations

Time (CST) Temp. Windchill Dew Point Humidity Pressure Visibility Wind Dir Wind Speed Gust Speed Precip Events Conditions
12:53 AM 25.0 °F 20.7 °F 10.9 °F 55% 30.29 in 10.0 mi NW 3.5 mph - N/A   Clear
1:53 AM 24.1 °F 16.0 °F 10.0 °F 55% 30.28 in 10.0 mi WNW 6.9 mph - N/A   Clear
2:53 AM 21.9 °F 13.4 °F 10.0 °F 60% 30.29 in 10.0 mi NW 6.9 mph - N/A   Clear
3:53 AM 21.9 °F 13.4 °F 9.0 °F 58% 30.29 in 10.0 mi WNW 6.9 mph - N/A   Clear
4:53 AM 21.9 °F 13.4 °F 8.1 °F 55% 30.29 in 10.0 mi WNW 6.9 mph - N/A   Clear
5:53 AM 19.9 °F 12.1 °F 8.1 °F 60% 30.30 in 10.0 mi WNW 5.8 mph - N/A   Clear
6:53 AM 19.0 °F 13.9 °F 9.0 °F 65% 30.30 in 10.0 mi NW 3.5 mph - N/A   Clear
7:53 AM 16.0 °F - 9.0 °F 74% 30.29 in 10.0 mi Calm Calm - N/A   Clear
8:53 AM 21.9 °F 17.2 °F 10.9 °F 63% 30.30 in 10.0 mi NNE 3.5 mph - N/A   Clear
9:53 AM 25.0 °F - 10.0 °F 53% 30.30 in 10.0 mi Calm Calm - N/A   Clear
10:53 AM 27.0 °F - 10.0 °F 49% 30.28 in 10.0 mi Calm Calm - N/A   Clear
11:53 AM 30.0 °F 25.2 °F 10.0 °F 43% 30.24 in 10.0 mi SW 4.6 mph - N/A   Clear
12:53 PM 33.1 °F - 10.0 °F 38% 30.19 in 10.0 mi Calm Calm - N/A   Mostly Cloudy
1:53 PM 36.0 °F 29.0 °F 12.0 °F 37% 30.14 in 10.0 mi SW 9.2 mph - N/A   Overcast
2:53 PM 37.9 °F 31.5 °F 15.1 °F 39% 30.09 in 10.0 mi SSE 9.2 mph - N/A   Scattered Clouds
3:53 PM 37.9 °F 32.1 °F 17.1 °F 43% 30.06 in 10.0 mi South 8.1 mph - N/A   Overcast
4:53 PM 37.9 °F 32.7 °F 19.0 °F 47% 30.02 in 10.0 mi SSE 6.9 mph - N/A   Overcast
5:53 PM 37.0 °F 31.6 °F 19.9 °F 50% 30.00 in 10.0 mi SE 6.9 mph - N/A   Overcast
6:53 PM 36.0 °F 30.3 °F 19.9 °F 52% 29.98 in 10.0 mi SSE 6.9 mph - N/A   Mostly Cloudy
7:53 PM 37.0 °F 30.4 °F 21.9 °F 54% 29.94 in 10.0 mi SSE 9.2 mph - N/A   Overcast
8:53 PM 39.0 °F 34.0 °F 23.0 °F 53% 29.89 in 10.0 mi South 6.9 mph - N/A   Overcast
9:53 PM 41.0 °F 37.1 °F 23.0 °F 49% 29.88 in 10.0 mi SSW 5.8 mph - N/A   Overcast
10:53 PM 41.0 °F - 24.1 °F 51% 29.87 in 10.0 mi Calm Calm - N/A   Overcast
11:53 PM 37.9 °F 33.5 °F 26.1 °F 62% 29.84 in 10.0 mi ESE 5.8 mph - N/A   Overcast